Regional Weather Roundup
Issued by NWS Upton, NY

Current Version | Previous Version | Graphics & Text | Print | Product List | Glossary Off
Versions: 1 2 3 4 5 6 7 8 9 10 11 12 13 14 15 16 17 18 19 20 21 22 23 24 25 26 27 28 29 30 31 32 33 34 35 36 37 38 39 40 41 42 43 44 45 46 47 48 49 50

000
ASUS41 KOKX 281904
RWROKX

REGIONAL WEATHER ROUNDUP
NATIONAL WEATHER SERVICE NEW YORK NY
300 PM EDT THU APR 28 2016

NOTE: "FAIR" INDICATES FEW OR NO CLOUDS BELOW 12,000 FEET WITH NO
SIGNIFICANT WEATHER AND/OR OBSTRUCTIONS TO VISIBILITY.

NYZ071-072-176-178-NJZ106-104-282000-
NEW YORK CITY METRO AREA


CITY           SKY/WX    TMP DP  RH WIND       PRES   REMARKS
CENTRAL PARK   CLOUDY    55  34  45 S8        30.06S
LAGUARDIA APRT CLOUDY    56  33  42 S10       30.04R
KENNEDY INTL   CLOUDY    53  33  46 SE10      30.06F
NEWARK/LIBERTY CLOUDY    54  32  43 SE10      30.04S
BRNX BOT. GARD   N/A     54  34  47 S8        30.05R
TETERBORO      CLOUDY    56  34  43 S10       30.02S
$$

NYZ177-179-078>081-282000-
LONG ISLAND NEW YORK

CITY           SKY/WX    TMP DP  RH WIND       PRES   REMARKS
FARMINGDALE    CLOUDY    52  36  54 S12       30.05S
ISLIP          CLOUDY    52  36  54 SE12      30.04F
SHIRLEY        CLOUDY    52  36  54 SE10      30.05F
RIVERHEAD        N/A     52  36  54 S1        30.04S
WESTHAMPTON    CLOUDY    48  33  56 SE12      30.07S
EAST HAMPTON   FAIR      49  31  49 SE10      30.05F
MONTAUK POINT    N/A     50  34  54 SE7       30.06F
$$

NYZ052-065-067-282000-
HUDSON VALLEY

CITY           SKY/WX    TMP DP  RH WIND       PRES   REMARKS
WHITE PLAINS   CLOUDY    55  24  30 S5        30.02S
NEWBURGH       PTSUNNY   55  23  28 SW6       30.01F
MONTGOMERY     CLOUDY    58  26  29 MISG      29.99F
POUGHKEEPSIE   PTSUNNY   60  18  19 CALM      30.00F
ALBANY         CLOUDY    57  21  24 E6        30.00F
$$

NJZ001-105-106-008-010-013-015-019>022-104-282000-
NEW JERSEY

CITY           SKY/WX    TMP DP  RH WIND       PRES   REMARKS
NEWARK/LIBERTY CLOUDY    54  32  43 SE10      30.04S
TETERBORO      CLOUDY    56  34  43 S10       30.02S
CALDWELL       CLOUDY    57  30  35 S9        30.03S
MORRISTOWN     CLOUDY    57  28  33 S9        30.03S
SOMERVILLE     CLOUDY    57  28  33 S9        30.01S
SUSSEX         PTSUNNY   58  27  30 N5        30.01F
ANDOVER          N/A     59  26  28 CALM      30.00F
TRENTON        LGT RAIN  53  30  41 SE12      30.03F
MILLVILLE      LGT RAIN  47  42  83 E12       30.01F
ATLANTIC CITY  LGT RAIN  48  43  82 E10       30.04F
WRIGHTSTOWN    LGT RAIN  49  37  63 E9        30.02F
TOMS RIVER     CLOUDY    50  37  62 SE6       30.06F
BELMAR         LGT RAIN  50  32  50 E12       30.07R
$$

PAZ047>061-062-071-282000-
EASTERN PENNSYLVANIA

CITY           SKY/WX    TMP DP  RH WIND       PRES   REMARKS
PHILADELPHIA   LGT RAIN  49  41  74 E10       30.04S
ALLENTOWN      LGT RAIN  55  33  43 SE6       30.02F
SCRANTON       LGT RAIN  53  31  42 W7        29.99S
$$

CTZ002-004>006-009-010-012-RIZ004-006-007-MAZ004-011-015-282000-
SOUTHERN NEW ENGLAND
 IN CT

CITY           SKY/WX    TMP DP  RH WIND       PRES   REMARKS
BRADLEY INTL   CLOUDY    59  18  20 S7        29.98F
HARTFORD       CLOUDY    60  20  21 SE7       30.00F
DANBURY        CLOUDY    56  26  31 S12       30.01F
WTRBRY/OXFORD  NOT AVBL
BRIDGEPORT     CLOUDY    56  21  25 S7        30.03F
MERIDEN        SUNNY     58  24  27 S13       30.00F
NEW HAVEN      CLOUDY    53  30  41 S9        30.03F
CHESTER        FAIR      55  21  26 S9        30.01F
GROTON         SUNNY     50  38  63 SE15      30.04F
WILLIMANTIC    SUNNY     62  17  17 W10       29.99F

 IN RI

CITY           SKY/WX    TMP DP  RH WIND       PRES   REMARKS
PROVIDENCE     PTSUNNY   55  25  31 S15       30.02F
BLOCK ISLAND   MOSUNNY   49  34  56 S14       30.05F
WESTERLY       SUNNY     52  30  43 SE9       30.04F

 IN MA

CITY           SKY/WX    TMP DP  RH WIND       PRES   REMARKS
BOSTON         PTSUNNY   50  31  48 E17       30.03F
WORCESTER      SUNNY     55  18  23 W9        29.99F
WESTFIELD      CLOUDY    59  17  19 VRB5      29.98F
PROVINCETOWN   SUNNY     50  20  30 E9        30.06F
NANTUCKET      SUNNY     51  28  41 SE14      30.05F
$$

ANZ330-335-338-340-345-350-353-355-282000-
COASTAL MARINE OBSERVATIONS


STATION/POSITION TIME  SKY/WX   TEMP    WIND        PRES    VSBY  WAVE
                                AIR SEA DIR/SP/G                  HT/PER
                 (UTC)          (F)     (DEG/KT/KT) (MB)    (MI)  (FT/S)
NY HARB ENTRANCE 1750            50 52  120/ 14/ 16 1017.0          3/ 4
20S FIRE ISLAND  1750            48 49  100/ 14/ 16 1017.3          3/ 4
GREAT SOUTH BAY  1830            49 58  140/ 12/ 16   N/A
23 SSW MONTAUK P 1750            47 47  130/ 10/ 12 1017.5          3/ 7
15 E BARNEGAT LI 1822               51                N/A           4/ 4
HUDSON CANYON    1750            50 49              1016.3          3/ 4
KINGS POINT      1800            53 53              1016.8
EXECUTION ROCKS  NOT AVBL
CENTRAL LI SOUND 1845            51     170/ 14/ 16   N/A           1
EASTERN LI SOUND 1800            49 47  130/ 12/ 16   N/A
ROBBINS REEF     1806            50     170/ 16/ 19 1016.7
$$


>>>>>>>>>>>>>>>>>>>>>>>>>>>> KEY <<<<<<<<<<<<<<<<<<<<<<<<<<<
>                                                          <
>     SKY/WX - SKY CONDITION/PRESENT WEATHER               <
>     TMP    - TEMPERATURE IN FAHRENHEIT                   <
>     DP     - DEWPOINT IN FAHRENHEIT                      <
>     RH     - RELATIVE HUMIDITY IN PERCENT                <
>     WIND   - DIRECTION AND SPEED IN MPH                  <
>     PRES   - MEAN SEA LEVEL PRESSURE IN INCHES OF HG     <
>     WCI    - WIND CHILL INDEX                            <
>     VSB    - VISIBILITY IN MILES                         <
>     HX     - HEAT INDEX                                  <
>     TC     - TEMPERATURE IN CELSIUS                      <
>     VRB    - VARIABLE WIND DIRECTION                     <
>                                                          <
>>>>>>>>>>>>>>>>>>>>>>>>>>>> KEY <<<<<<<<<<<<<<<<<<<<<<<<<<<





USA.gov is the U.S. government's official web portal to all federal, state and local government web resources and services.